This is the latest recevied weather packets stored in our database for station/object KE0LFX. If no packets are shown the sender has not sent any weather packets the latest 10 day(s).
| Time | Temp. | Humidity | Pressure | Rain* | Wind** | Luminosity | Snow |
|---|---|---|---|---|---|---|---|
| 1777415649 | 14.44° C | 54% | 1018.8 hPa | 0 mm | - | 81 W/m² | - |
| 1777415344 | 14.44° C | 54% | 1018.8 hPa | 0 mm | - | 60 W/m² | - |
| 1777415039 | 14.44° C | 53% | 1018.9 hPa | 0 mm | - | 48 W/m² | - |
| 1777414738 | 14.44° C | 53% | 1018.8 hPa | 0 mm | - | 52 W/m² | - |
| 1777414435 | 14.44° C | 53% | 1018.8 hPa | 0 mm | - | 33 W/m² | - |
| 1777414134 | 14.44° C | 51% | 1018.8 hPa | 0 mm | - | 41 W/m² | - |
| 1777413830 | 15° C | 51% | 1018.5 hPa | 0 mm | - | 64 W/m² | - |
| 1777413525 | 15° C | 53% | 1018.6 hPa | 0 mm | - | 96 W/m² | - |
| 1777413221 | 15° C | 52% | 1018.2 hPa | 0 mm | - | 111 W/m² | - |
| 1777412917 | 15.56° C | 51% | 1018.3 hPa | 0 mm | - | 200 W/m² | - |
| 1777412611 | 15.56° C | 51% | 1018.2 hPa | 0 mm | - | 324 W/m² | - |
| 1777412308 | 15.56° C | 50% | 1018.6 hPa | 0 mm | - | 422 W/m² | - |
| 1777412004 | 15.56° C | 51% | 1018.5 hPa | 0 mm | - | 323 W/m² | - |
| 1777411703 | 15° C | 51% | 1018.5 hPa | 0 mm | - | 472 W/m² | - |
| 1777411398 | 15° C | 52% | 1018.2 hPa | 0 mm | - | 408 W/m² | - |
| 1777411098 | 15° C | 52% | 1018 hPa | 0 mm | - | 409 W/m² | - |
| 1777410798 | 15° C | 54% | 1018.4 hPa | 0 mm | - | 186 W/m² | - |
| 1777410496 | 14.44° C | 54% | 1018.8 hPa | 0 mm | - | 241 W/m² | - |
| 1777410196 | 15° C | 52% | 1019.1 hPa | 0 mm | - | 117 W/m² | - |
| 1777409892 | 15° C | 52% | 1018.9 hPa | 0 mm | - | 101 W/m² | - |
| 1777409587 | 15° C | 54% | 1018.9 hPa | 0 mm | - | 124 W/m² | - |
| 1777409282 | 15° C | 53% | 1018.7 hPa | 0 mm | - | 151 W/m² | - |
| 1777408979 | 15° C | 51% | 1018.8 hPa | 0 mm | - | 389 W/m² | - |
| 1777408676 | 15.56° C | 53% | 1018.5 hPa | 0 mm | - | 471 W/m² | - |
| 1777408371 | 15° C | 52% | 1018.8 hPa | 0 mm | - | 555 W/m² | - |
* Rain latest hour (hover to see other rain measurements)
** Current wind speed in m/s (hover to see current wind gust speed)